Wind_Speed
11 13 11 4 2 4 4 7 4 2 2 2 12 4 5 3 3 3 14 19 28 32 31 29 27 26 24 23 22 22 21 20 20 20 19 19 18 18 18 17 17 17 16 16 16 16 15 16 15
8 9 2 2 3 1 6 6 10 3 6 13 11 4 5 2 4 11 13 28 31 33 32 29 27 26 25 23 22 21 21 19 19 19 18 18 17 17 17 16 16 16 15 15 13 13 14 15 14
5 3 2 3 3 6 5 5 1 13 10 5 5 6 4 5 10 14 20 28 27 30 31 29 27 25 24 22 21 20 20 19 18 18 17 17 16 16 16 15 15 14 13 12 12 11 13 15 15
1 4 3 2 7 5 4 0 5 1 5 5 10 9 4 4 17 15 32 28 25 26 30 28 27 25 23 21 20 19 18 18 17 17 16 16 15 15 15 14 13 12 11 11 11 11 12 14 15
3 3 1 5 5 4 7 4 5 5 2 7 5 4 4 2 15 34 33 28 27 25 28 27 25 23 22 20 18 18 17 17 16 16 16 15 15 14 14 13 12 11 11 11 11 11 12 13 16
2 3 1 10 16 4 6 8 3 5 6 5 7 7 4 23 34 31 33 26 26 30 29 25 22 21 20 18 18 17 16 17 17 16 16 15 14 14 13 12 12 11 11 12 12 12 12 12 16
6 4 6 7 15 4 6 5 5 6 9 5 10 5 9 17 31 35 32 29 29 31 30 25 22 19 19 18 17 16 15 15 16 16 15 15 13 13 13 12 11 10 9 9 10 11 11 12 15
5 4 4 6 11 6 3 1 5 11 5 8 10 8 11 21 31 33 29 27 28 27 27 26 24 21 19 18 16 15 14 14 14 15 14 13 12 11 10 9 9 9 10 11 11 10 10 13 15
4 3 5 8 7 7 0 7 6 4 14 1 3 7 20 32 32 29 25 24 22 24 26 26 24 22 20 18 16 15 14 14 13 13 12 12 10 10 9 10 9 11 10 10 11 10 14 17 18
5 5 11 8 8 2 4 6 1 4 10 4 10 19 31 32 31 27 22 20 20 21 24 24 23 21 21 20 17 16 13 13 10 10 12 12 12 11 10 9 9 10 9 10 9 11 14 17 19
6 9 17 14 4 2 3 0 3 11 2 6 17 17 18 27 25 24 21 19 21 22 25 23 22 21 19 19 18 18 15 14 12 13 12 11 11 11 10 8 8 10 11 12 10 14 17 17 18
4 10 11 15 4 3 4 3 3 4 6 22 16 15 7 14 14 19 22 19 19 22 25 23 22 23 22 20 17 17 14 12 11 10 11 10 10 12 12 12 10 9 12 14 17 17 17 17 17
5 4 14 15 3 6 6 3 4 11 18 23 23 20 21 19 16 19 23 24 25 27 24 23 24 22 23 20 19 17 13 11 12 11 10 10 10 10 12 12 11 10 12 15 19 17 16 17 18
7 15 13 7 6 7 7 6 4 7 12 19 17 14 18 20 23 19 23 25 25 28 24 24 25 23 23 22 20 18 14 12 10 10 10 10 10 11 12 10 9 9 12 15 18 18 20 22 22
8 5 12 20 6 6 11 2 4 14 11 17 19 17 13 8 16 30 25 26 33 30 26 25 26 26 25 22 19 15 12 10 8 8 9 11 11 10 9 8 8 9 14 18 20 24 24 24 23
8 5 11 7 10 8 10 6 6 15 13 9 10 11 11 8 15 23 31 31 31 32 29 26 25 25 23 21 18 15 11 8 7 8 9 9 8 7 7 7 8 10 14 22 25 24 25 24 23
4 5 8 5 9 6 9 3 11 13 10 15 16 11 13 11 12 20 25 32 34 31 28 26 24 22 23 20 18 14 11 9 8 7 7 7 6 6 7 8 11 14 19 26 25 24 24 25 23
5 5 5 13 6 6 6 5 18 15 13 15 13 13 15 15 17 22 27 31 34 30 27 25 26 25 23 22 20 16 11 9 8 8 7 8 9 7 7 10 15 17 21 24 23 25 23 24 23
7 5 7 5 6 7 13 10 19 16 13 11 13 14 14 17 13 20 27 30 30 27 27 28 28 25 26 25 22 17 15 11 10 8 8 7 7 6 6 11 15 17 21 22 21 24 24 20 22
5 5 5 5 7 5 10 13 18 20 23 24 21 17 18 11 13 17 26 30 29 30 30 30 28 28 26 25 22 17 17 11 11 10 10 8 7 6 8 9 13 17 20 20 21 24 26 26 20
13 12 4 2 7 7 10 7 13 14 11 12 10 11 15 21 20 14 21 26 31 32 33 30 30 27 25 22 19 19 14 16 12 10 9 8 6 6 7 9 11 14 15 17 16 18 24 25 12
16 10 7 7 2 5 5 8 16 22 15 16 20 15 17 18 17 14 19 21 27 32 32 31 31 28 24 22 20 21 19 17 12 12 10 9 8 7 7 10 11 13 13 14 13 14 18 26 19
6 9 10 8 3 4 6 5 7 17 15 14 18 16 17 19 20 18 20 23 26 32 31 30 29 27 26 24 21 21 18 12 15 14 13 12 11 11 9 10 11 12 14 14 13 13 15 17 17
9 4 6 2 4 3 7 5 5 19 21 19 17 18 19 19 17 15 23 26 28 33 31 29 28 27 25 24 23 21 19 15 17 17 16 14 13 13 12 11 12 13 15 15 16 16 14 15 15
6 8 2 2 1 8 9 4 6 19 19 25 23 24 23 21 20 18 18 25 29 35 35 31 29 28 26 24 24 22 18 17 19 20 19 18 17 16 14 14 14 15 16 17 17 19 19 19 20
10 11 5 7 8 10 6 7 5 18 21 19 24 27 25 21 19 20 19 26 28 33 35 34 34 31 29 26 25 22 18 19 19 19 19 19 18 17 16 16 15 16 16 16 16 18 20 18 19
5 9 7 5 1 4 4 1 4 7 21 20 16 17 19 19 19 19 20 26 28 31 35 38 35 32 32 30 27 24 22 22 20 19 18 19 19 19 18 16 16 16 15 16 16 18 19 18 18
8 7 5 2 5 5 3 4 6 6 14 16 13 18 20 19 16 15 16 24 27 30 31 32 37 36 37 33 29 26 25 24 21 21 21 20 20 19 18 17 16 16 16 16 16 18 17 17 17
4 4 4 5 4 5 3 6 6 12 14 17 17 20 21 19 18 18 17 26 27 27 29 32 34 34 37 37 31 28 28 25 23 23 22 21 21 21 20 18 18 17 17 16 16 16 16 16 16
4 8 6 5 4 1 4 4 2 4 8 15 19 20 20 21 21 19 20 25 26 27 28 33 32 33 37 37 35 30 29 27 26 26 24 23 22 21 21 20 19 17 16 15 15 16 14 14 14
Wind_Direction
300 315 309 3 30 66 267 264 236 170 325 205 135 162 147 19 140 196 145 145 151 149 150 150 145 139 135 129 125 121 118 117 118 118 116 112 109 108 107 106 105 104 100 97 94 88 79 70 66
309 318 359 83 114 20 278 253 248 231 164 111 79 100 56 94 64 116 122 153 148 148 149 148 143 140 135 131 126 123 119 119 119 120 120 116 113 110 106 104 101 100 101 99 92 82 71 66 63
315 292 87 150 175 181 234 282 26 126 120 108 106 47 88 118 118 145 141 145 151 148 149 146 143 139 135 130 126 124 121 120 120 121 123 121 118 114 110 106 102 97 93 91 88 83 69 63 59
10 20 24 154 223 239 206 178 98 330 63 47 107 80 74 161 141 150 147 144 147 149 149 145 142 140 136 133 131 129 126 124 122 121 123 123 121 117 114 112 108 104 98 91 82 69 64 61 61
76 63 234 256 226 228 238 218 204 205 66 141 119 131 71 68 141 142 150 147 147 146 147 144 142 140 138 136 135 133 129 126 124 123 122 121 119 117 115 112 109 104 99 89 79 71 64 60 66
65 96 116 245 240 152 243 242 240 218 110 141 119 114 104 141 132 145 151 148 147 146 146 143 143 142 140 139 135 131 129 128 127 125 123 119 116 114 110 108 105 100 94 89 83 78 74 69 76
157 135 214 258 263 169 221 202 215 185 139 184 150 96 123 145 145 154 153 150 149 148 146 145 145 145 143 139 134 131 132 131 129 125 122 120 116 115 113 109 102 98 94 89 89 89 87 84 86
136 122 226 235 244 268 210 236 271 165 149 115 149 156 165 164 150 152 151 149 148 147 147 149 151 151 145 136 133 134 133 129 129 126 124 124 123 118 114 108 105 98 96 96 98 101 101 102 101
139 133 213 225 166 206 234 22 23 33 132 151 180 159 148 149 144 142 146 149 148 147 153 154 152 148 141 139 137 132 132 133 133 133 131 132 125 124 121 117 117 111 103 97 107 111 111 106 101
156 174 219 225 213 90 77 42 35 94 135 68 71 108 138 143 145 147 156 155 153 149 155 153 149 146 146 144 139 133 132 133 141 152 152 142 139 127 131 124 122 130 126 124 110 123 120 113 109
195 210 222 246 166 114 298 124 5 140 137 70 135 133 138 144 150 148 156 156 156 152 151 153 152 149 149 144 145 143 136 136 138 136 145 148 155 159 154 138 137 144 141 145 133 134 132 120 114
180 234 222 254 186 157 93 106 24 2 122 119 138 113 125 143 149 150 150 151 156 154 158 159 159 154 153 152 154 155 156 153 151 154 154 159 158 152 147 144 127 136 147 153 142 136 129 119 115
215 244 234 251 207 100 101 106 131 120 121 122 134 139 174 173 173 153 147 149 161 158 162 162 163 158 160 163 165 162 161 159 163 169 168 172 169 159 151 149 149 130 126 145 141 132 125 116 117
205 230 246 245 161 164 119 136 84 155 168 150 149 141 180 170 156 144 148 149 160 164 163 163 171 170 172 170 170 166 166 163 163 164 168 164 165 160 155 152 145 139 135 144 141 131 123 116 116
224 224 234 241 166 161 116 117 204 160 185 145 153 165 203 164 170 149 152 154 165 164 165 167 173 170 167 164 164 159 150 150 159 160 158 165 169 161 164 170 159 147 141 144 135 127 121 118 114
177 164 233 209 152 195 147 210 172 170 170 179 182 162 153 142 173 153 156 162 165 163 160 157 159 160 161 161 156 150 141 135 130 135 142 153 162 168 180 181 166 145 154 155 139 131 126 120 116
263 203 212 257 183 140 177 152 166 177 188 180 179 152 139 145 168 159 158 166 171 167 163 164 165 162 158 157 155 147 136 133 123 129 141 142 142 149 162 146 138 142 146 151 145 138 132 129 125
187 185 198 215 204 123 145 198 164 180 185 183 170 156 164 168 179 158 157 168 169 168 166 165 162 162 164 161 154 144 134 125 124 128 124 123 125 132 136 138 133 145 146 152 150 143 138 136 134
174 175 216 212 187 128 182 161 178 182 181 171 172 174 173 177 169 153 157 168 166 170 171 168 163 166 169 159 153 151 145 138 133 131 133 128 116 121 153 139 142 142 147 147 151 148 145 141 141
221 216 237 249 162 104 155 176 176 178 189 184 178 176 177 159 156 151 154 166 175 175 174 169 169 172 174 172 166 160 145 143 143 140 136 125 124 131 141 141 151 159 151 151 156 157 148 148 149
215 226 210 201 116 47 120 145 177 197 191 186 190 194 181 173 170 164 159 166 176 179 176 173 175 177 176 175 168 158 150 145 141 145 136 130 131 131 136 146 146 145 144 151 169 175 170 160 160
210 185 207 248 225 165 210 169 198 186 188 187 192 190 187 184 182 169 164 169 174 179 179 179 178 177 178 181 181 177 163 153 158 153 146 140 141 136 142 148 140 142 144 135 139 170 178 174 151
210 151 195 227 198 146 221 128 195 196 201 182 192 192 192 188 187 177 173 169 174 179 179 183 180 177 184 186 195 187 166 162 157 155 154 153 144 147 146 149 145 140 136 127 133 135 137 159 164
190 128 185 112 131 226 208 142 217 190 194 195 197 196 192 186 185 181 176 165 173 184 185 187 181 182 190 192 194 189 175 173 168 163 160 151 146 145 144 141 139 132 125 122 120 123 129 131 128
192 141 171 170 115 229 165 156 219 191 193 191 187 197 192 185 180 175 175 172 175 182 192 191 190 189 192 193 194 193 191 191 184 173 168 159 152 143 139 142 136 132 124 122 120 119 117 114 113
204 188 165 164 188 216 125 204 231 185 200 203 192 194 189 182 179 181 178 178 180 184 192 192 195 197 195 195 198 199 193 192 188 182 175 167 159 152 149 145 138 131 132 128 125 122 114 113 109
199 195 193 115 2 97 212 219 342 180 194 202 197 182 190 192 187 182 177 179 178 185 189 191 194 199 199 200 200 193 185 190 188 183 177 169 163 158 155 149 142 137 133 131 132 124 119 117 115
174 173 167 23 150 184 271 186 197 166 195 191 176 185 192 193 189 181 181 182 183 187 188 188 197 197 200 201 197 191 188 191 187 183 177 172 167 165 161 156 152 148 144 141 136 127 125 124 116
150 185 135 124 142 157 124 254 209 180 191 184 186 189 188 187 188 185 183 186 183 181 181 185 189 189 198 198 195 193 191 190 185 183 181 179 174 172 168 163 160 157 152 148 141 134 133 127 122
166 170 133 146 237 95 143 278 172 213 198 185 184 190 190 190 187 180 179 177 175 174 177 184 185 186 196 194 195 192 194 189 185 183 182 181 179 177 173 168 165 162 157 153 150 144 143 134 128
Height
774 774 772 771 796 800 807 792 767 764 762 752 751 761 773 774 778 800 785 787 791 795 799 804 805 806 808 809 811 812 813 815 815 816 818 818 818 819 819 821 821 821 823 824 825 826 826 826 826
774 774 772 781 803 812 810 778 767 756 755 750 756 763 771 783 778 783 788 792 795 796 800 804 806 808 809 811 812 814 814 817 817 818 819 820 821 821 822 823 823 824 825 826 827 828 828 828 828
773 774 781 791 804 810 800 767 759 756 749 753 764 763 770 781 781 785 787 793 798 799 802 805 807 809 811 813 815 816 817 818 819 820 821 822 823 823 824 825 826 827 827 828 829 829 829 829 829
773 775 783 796 793 786 774 763 758 758 755 754 760 775 771 773 780 784 790 794 800 803 804 806 808 811 812 814 816 818 818 820 821 822 824 824 825 825 826 827 828 828 829 830 830 831 830 829 829
772 781 797 796 786 774 764 758 759 762 761 760 760 778 781 781 780 786 792 796 800 805 807 808 810 812 814 817 818 820 820 822 823 824 825 826 826 827 828 829 829 830 830 831 831 831 831 830 831
781 787 807 789 767 767 761 754 752 755 762 766 768 774 782 782 782 789 793 797 800 802 807 810 813 815 817 819 821 822 823 823 824 825 826 827 828 829 830 831 831 831 832 832 832 832 832 832 832
783 793 794 780 764 772 762 751 754 753 760 765 759 774 783 785 784 788 793 796 799 802 805 809 814 817 819 820 823 824 825 826 826 827 828 829 830 830 831 832 833 833 833 834 833 833 833 834 835
772 782 785 780 768 771 748 745 740 743 757 756 760 772 780 778 783 789 795 798 800 803 805 809 813 817 820 822 824 826 827 828 829 829 829 830 831 831 833 833 834 835 836 836 835 835 835 835 836
765 788 792 773 773 759 748 749 742 743 752 756 759 759 763 777 783 791 797 800 802 803 805 809 813 817 820 823 825 827 829 830 831 831 831 831 832 833 834 834 835 836 838 838 837 836 837 837 838
770 783 772 749 749 751 753 750 750 756 753 761 766 766 772 781 785 792 798 801 803 804 807 810 814 818 820 823 826 828 830 831 832 832 832 832 833 833 835 835 836 837 838 839 839 839 839 840 840
765 765 747 740 749 748 751 750 751 754 764 766 774 774 781 782 788 790 798 803 803 804 807 811 815 818 822 824 827 829 831 832 834 833 834 833 832 833 834 836 836 837 839 839 840 840 841 841 841
761 752 745 736 744 746 752 757 760 760 758 760 773 771 785 786 791 791 792 801 805 806 809 812 815 817 821 825 827 830 831 833 834 834 834 835 834 834 835 836 837 836 838 839 840 842 844 843 843
755 748 742 738 743 749 753 764 761 765 764 761 768 771 776 779 791 790 792 797 804 805 809 811 815 819 820 824 827 829 832 833 833 833 834 835 835 835 837 837 837 838 839 839 841 843 845 845 846
745 744 742 741 745 747 758 762 762 771 771 770 767 767 777 776 777 786 791 797 804 807 809 811 815 817 821 824 827 830 831 832 833 833 834 835 836 836 837 839 838 838 839 841 842 844 846 847 849
739 748 745 739 746 749 751 770 768 764 765 760 758 763 780 778 782 773 789 796 800 806 809 811 814 817 820 824 827 831 833 833 833 833 834 835 836 837 838 839 839 839 841 842 845 847 849 850 853
742 745 752 735 742 746 744 768 766 764 764 765 764 765 774 780 784 782 785 795 802 804 810 815 818 820 821 824 828 831 833 835 836 836 836 836 837 838 837 838 840 839 841 843 846 849 851 853 856
745 752 749 741 733 740 744 766 761 764 765 765 766 770 774 782 787 787 788 794 799 805 811 815 819 822 822 824 828 832 834 835 836 838 838 837 838 839 839 839 840 841 841 844 847 851 851 855 858
750 745 739 737 734 738 751 759 756 762 763 765 768 771 775 779 784 783 787 793 797 805 810 815 818 821 822 825 828 831 835 837 838 839 840 840 839 842 840 842 840 843 844 846 849 851 854 858 860
733 733 733 730 725 736 745 755 756 759 761 768 770 771 774 778 783 784 787 794 799 805 810 814 815 820 823 824 828 831 833 838 840 840 842 842 841 841 845 843 844 845 845 847 851 852 854 860 863
730 733 733 721 719 731 748 753 752 755 750 751 758 765 769 775 779 782 785 792 798 804 809 812 814 819 823 824 825 830 834 840 841 841 841 843 843 845 845 846 846 846 844 848 851 854 854 859 862
730 732 731 725 723 737 744 759 759 757 756 759 764 767 768 769 774 780 783 789 796 803 807 809 813 819 823 825 827 832 834 838 841 842 843 844 845 847 849 849 849 848 847 845 851 853 855 856 861
727 720 724 727 729 752 736 764 756 752 758 759 760 765 764 771 775 777 781 788 794 800 805 808 813 818 822 825 828 832 832 836 840 842 844 846 847 849 851 851 850 849 849 849 850 854 854 855 858
714 713 723 726 728 733 741 753 746 750 756 758 757 758 762 765 769 772 778 785 793 799 804 810 813 815 821 823 828 832 832 838 840 842 845 847 848 850 853 853 852 852 851 851 853 854 855 857 858
705 712 718 723 734 752 731 737 756 737 737 742 748 751 755 761 768 774 779 783 790 798 803 809 811 814 820 823 828 831 832 837 840 843 845 847 849 852 853 854 855 855 854 854 855 856 857 859 859
706 719 743 749 759 745 724 734 731 722 719 719 733 740 744 752 762 769 774 778 784 791 799 805 809 814 819 823 828 830 831 836 840 843 845 847 851 852 854 857 857 857 857 858 858 859 861 861 862
707 707 734 734 742 724 719 734 719 703 701 704 711 718 730 744 751 758 764 770 778 785 793 798 804 811 817 821 826 829 830 836 841 843 845 848 850 853 856 858 859 860 861 861 862 863 863 865 866
706 714 701 718 720 732 727 709 697 698 699 705 713 723 732 737 742 748 757 765 773 780 785 790 799 807 813 820 824 826 826 834 840 844 847 849 851 855 858 860 861 862 864 865 867 867 867 868 870
692 692 714 722 734 733 734 720 719 712 709 707 715 721 725 731 738 746 754 762 768 774 782 789 796 801 808 817 821 823 825 832 838 843 846 849 852 855 858 860 863 865 866 868 869 869 871 871 872
695 698 699 709 722 731 743 732 701 696 697 701 706 711 717 725 731 737 746 755 762 770 778 786 793 798 804 812 818 821 826 831 834 840 845 849 852 855 858 861 864 866 868 870 870 872 874 874 875
682 692 700 726 733 735 739 729 688 688 691 690 694 701 708 713 719 729 741 752 760 768 776 783 790 793 800 808 814 818 825 829 832 837 843 848 852 856 858 861 864 867 869 870 872 873 875 876 877